This demonstration page uses our WeatherBlox Daily Observations layout. Learn more.

Left ArrowRight Arrow

44.89941, -97.11507

Hourly Observations for August 6, 2022

Temp ( °F °C ) Dew Point ( °F °C ) Humidity (%) Winds ( mph kmh ) Pressure ( in mb ) Visibility ( mi km ) Precip ( " mm )
12:53 am 00:53 Mostly Cloudy 74 23.3 72 22.2 94 94 Calm 29.83 1010 10 16 0.00 0.00
1:53 am 01:53 Cloudy 74 23.3 71 21.7 91 91 E 10 17 29.84 1011 10 16 0.00 0.00
2:53 am 02:53 Cloudy 71 21.7 69 20.6 94 94 E 6 9 29.85 1011 10 16 0.00 0.00
3:53 am 03:53 Cloudy 71 21.7 69 20.6 94 94 N 9 15 29.86 1011 10 16 0.00 0.00
4:14 am 04:14 Cloudy 71 21.7 70 21.1 96 96 N 7 11 29.86 1011 10 16 0.00 0.00
4:34 am 04:34 Cloudy 71 21.7 70 21.1 96 96 NNW 17 28 29.89 1012 10 16 0.00 0.00
4:46 am 04:46 Cloudy with Light Rain 64 17.8 61 16.1 90 90 N 37 59 29.93 1013 4 6 0.03 0.76
4:49 am 04:49 Cloudy with Light Rain 64 18 61 16 88 88 N 32 52 29.92 1013 4 6 0.05 1.27
4:53 am 04:53 Cloudy with Rain 63 17.2 59 15 87 87 N 31 50 29.92 1013 6 10 0.05 1.27
5:01 am 05:01 Cloudy with Light Rain 63 17.2 58 14.4 84 84 N 29 46 29.94 1014 10 16 0.00 0.00
5:53 am 05:53 Mostly Clear 62 16.7 57 13.9 84 84 N 22 35 29.90 1013 10 16 0.00 0.00
6:53 am 06:53 Mostly Cloudy with Light Rain 63 17.2 54 12.2 73 73 ENE 8 13 29.97 1015 10 16 0.00 0.00
7:53 am 07:53 Mostly Cloudy 63 17.2 57 13.9 81 81 NNE 16 26 29.94 1014 10 16 0.00 0.00
8:53 am 08:53 Mostly Sunny 66 18.9 59 15 78 78 N 14 22 29.96 1015 10 16 0.00 0.00
9:53 am 09:53 Sunny 67 19.4 59 15 76 76 NNE 14 22 29.98 1015 10 16 0.00 0.00
10:53 am 10:53 Sunny 70 21.1 55 12.8 59 59 NNE 10 17 30.01 1016 10 16 0.00 0.00
11:53 am 11:53 Mostly Cloudy 69 20.6 54 12.2 59 59 N 14 22 30.03 1017 10 16 0.00 0.00
12:53 pm 12:53 Partly Cloudy 74 23.3 56 13.3 54 54 N 15 24 30.01 1016 10 16 0.00 0.00
1:53 pm 13:53 Sunny 72 22.2 56 13.3 57 57 N 15 24 30.02 1017 10 16 0.00 0.00
2:53 pm 14:53 Sunny 74 23.3 56 13.3 54 54 N 15 24 30.02 1017 10 16 0.00 0.00
3:53 pm 15:53 Sunny 75 23.9 58 14.4 55 55 NNE 13 20 30.02 1017 10 16 0.00 0.00
4:53 pm 16:53 Sunny 76 24.4 59 15 56 56 NNE 17 28 30.01 1016 10 16 0.00 0.00
5:53 pm 17:53 Sunny 73 22.8 57 13.9 57 57 NNE 16 26 30.03 1017 10 16 0.00 0.00
6:53 pm 18:53 Sunny 72 22.2 57 13.9 59 59 NNE 15 24 30.03 1017 10 16 0.00 0.00
7:53 pm 19:53 Mostly Sunny 69 20.6 58 14.4 68 68 NNE 13 20 30.04 1017 10 16 0.00 0.00
8:53 pm 20:53 Clear 65 18.3 57 13.9 76 76 NNE 13 20 30.05 1018 10 16 0.00 0.00
9:53 pm 21:53 Clear 62 16.7 57 13.9 84 84 NNE 9 15 30.07 1018 10 16 0.00 0.00
10:53 pm 22:53 Mostly Cloudy 61 16.1 57 13.9 87 87 NNE 12 19 30.07 1018 10 16 0.00 0.00
11:53 pm 23:53 Clear 60 15.6 55 12.8 84 84 NNE 12 19 30.08 1019 10 16 0.00 0.00

Powered by AerisWeather